Stations météo

réclame
Mon MeteoGroup
Charleroi/Gosselies, Belgique (6449): Température de l'air & dewpoint: 15.10.2018 16:00:00 - 21.10.2018 16:00:00 (CEST)Charleroi/Gosselies, Belgique (6449): Vitesse du vent & gusts: 15.10.2018 16:00:00 - 21.10.2018 16:00:00 (CEST)Charleroi/Gosselies, Belgique (6449): Direction du vent: 15.10.2018 16:00:00 - 21.10.2018 16:00:00 (CEST)Charleroi/Gosselies, Belgique (6449): reduced air pressure: 15.10.2018 16:00:00 - 21.10.2018 16:00:00 (CEST)Charleroi/Gosselies, Belgique (6449): visibility: 15.10.2018 16:00:00 - 21.10.2018 16:00:00 (CEST)
Date & Time tt [°C] td [°C] ff [km/h] ff [knt] fx [km/h] fx [knt] dd ppp [hPa] vv [km]
21.10.2018 16:00:00 16,3 6,5 5 3 14 8 NE 1027,4 10
21.10.2018 15:00:00 15,4 5,9 8 4 14 8 ENE 1027,8 10
21.10.2018 14:00:00 15,0 4,6 5 3 - - N 1028,2 10
21.10.2018 13:00:00 13,6 6,0 2 1 7 4 - 1028,9 10
21.10.2018 12:00:00 12,0 6,0 4 2 11 6 - 1029,5 8
21.10.2018 11:00:00 9,6 5,8 2 1 - - - 1029,7 8
21.10.2018 10:00:00 6,9 5,2 8 4 14 8 S 1029,5 4,5
21.10.2018 09:00:00 4,5 4,0 9 5 14 8 SE 1029,9 2,7
21.10.2018 08:00:00 4,3 3,9 4 2 - - - 1029,8 2,8
21.10.2018 07:00:00 3,7 3,3 0 0 7 4 N 1030,2 2,6
21.10.2018 06:00:00 4,8 4,3 5 3 7 4 SSE 1030,2 2,5
21.10.2018 05:00:00 4,9 4,4 2 1 - - ENE 1030,5 3,5
21.10.2018 04:00:00 4,7 4,1 2 1 4 2 NE 1031,0 3,5
21.10.2018 03:00:00 5,5 4,7 2 1 4 2 - 1031,0 4,5
21.10.2018 02:00:00 6,3 5,2 2 1 - - ESE 1031,1 6
21.10.2018 01:00:00 5,8 5,2 4 2 7 4 ENE 1031,7 7
21.10.2018 00:00:00 6,9 4,9 5 3 7 4 NE 1031,8 8
20.10.2018 23:00:00 7,7 5,1 4 2 - - - 1031,8 10
20.10.2018 22:00:00 7,8 5,0 5 3 14 8 E 1031,6 10
20.10.2018 21:00:00 8,7 5,5 8 4 14 8 ENE 1031,7 10
20.10.2018 20:00:00 9,6 5,4 9 5 - - NE 1031,9 10
20.10.2018 19:00:00 10,5 5,9 9 5 14 8 ENE 1031,3 10
20.10.2018 18:00:00 12,6 6,6 9 5 14 8 NNE 1030,9 10
20.10.2018 17:00:00 13,3 7,0 11 6 - - N 1031,1 10
20.10.2018 16:00:00 13,2 7,1 8 4 14 8 N 1031,0 10
20.10.2018 15:00:00 12,6 7,2 4 2 14 8 - 1031,6 10
20.10.2018 14:00:00 13,0 7,6 9 5 - - ENE 1032,0 8
20.10.2018 13:00:00 11,3 6,6 8 4 18 10 E 1032,2 8
20.10.2018 12:00:00 9,2 6,9 9 5 14 8 E 1032,8 6
20.10.2018 11:00:00 7,3 6,6 5 3 - - NE 1032,4 1,5
20.10.2018 10:00:00 5,9 5,8 5 3 11 6 E 1031,7 0,3
20.10.2018 09:00:00 5,0 5,0 5 3 11 6 NE 1031,3 0,2
20.10.2018 08:00:00 5,6 5,5 8 4 - - N 1030,8 0,4
20.10.2018 07:00:00 6,4 5,9 8 4 11 6 N 1030,1 2,5
20.10.2018 06:00:00 6,1 5,9 4 2 11 6 NE 1029,6 2,5
20.10.2018 05:00:00 6,4 6,1 5 3 - - NE 1028,8 2,5
20.10.2018 04:00:00 7,1 6,4 5 3 11 6 N 1028,8 4,0
20.10.2018 03:00:00 7,1 6,2 5 3 11 6 N 1028,6 6
20.10.2018 02:00:00 8,5 7,2 8 4 - - NNW 1028,1 6
20.10.2018 01:00:00 9,1 7,6 8 4 14 8 N 1028,0 6
20.10.2018 00:00:00 9,7 8,2 9 5 18 10 N 1027,6 6
19.10.2018 23:00:00 10,6 8,9 8 4 - - NNW 1027,2 6
19.10.2018 22:00:00 11,2 9,1 8 4 11 6 N 1026,8 6
19.10.2018 21:00:00 11,5 9,1 8 4 11 6 N 1026,5 7
19.10.2018 20:00:00 12,1 8,9 5 3 - - N 1026,1 8
19.10.2018 19:00:00 12,8 9,4 8 4 18 10 N 1025,0 9
19.10.2018 18:00:00 14,2 9,7 15 8 22 12 NE 1024,4 9
19.10.2018 17:00:00 14,6 9,2 13 7 - - NNE 1024,2 9
19.10.2018 16:00:00 15,1 9,7 11 6 22 12 NNE 1023,9 9
19.10.2018 15:00:00 14,7 10,1 9 5 22 12 NNE 1024,3 9
19.10.2018 14:00:00 14,2 9,9 9 5 - - NNE 1024,5 7
19.10.2018 13:00:00 13,0 10,1 11 6 18 10 NE 1024,8 6
19.10.2018 12:00:00 11,7 10,0 11 6 18 10 NE 1025,0 4,0
19.10.2018 11:00:00 11,3 10,1 13 7 - - ENE 1024,9 3,0
19.10.2018 10:00:00 10,7 9,9 8 4 14 8 ENE 1025,0 2,5
19.10.2018 09:00:00 10,0 9,4 9 5 14 8 ENE 1024,5 2,2
19.10.2018 08:00:00 9,5 8,9 11 6 - - NE 1024,3 1,8
19.10.2018 07:00:00 9,1 8,6 13 7 18 10 NE 1024,2 2,0
19.10.2018 06:00:00 8,8 8,5 9 5 14 8 NE 1024,3 2,0
19.10.2018 05:00:00 9,6 9,1 8 4 - - NNE 1024,2 2,5
19.10.2018 04:00:00 9,0 8,6 8 4 11 6 ENE 1024,1 10
19.10.2018 03:00:00 9,9 9,3 8 4 14 8 NE 1024,3 10
19.10.2018 02:00:00 11,3 10,1 11 6 - - NE 1024,4 10
19.10.2018 01:00:00 11,3 9,8 11 6 18 10 NE 1024,5 10
19.10.2018 00:00:00 11,1 9,9 11 6 18 10 NE 1024,8 10
18.10.2018 23:00:00 10,6 9,5 13 7 - - NE 1024,9 10
18.10.2018 22:00:00 10,9 9,7 15 8 22 12 NE 1024,7 10
18.10.2018 21:00:00 11,4 10,0 15 8 25 14 NE 1024,5 10
18.10.2018 20:00:00 12,2 10,3 15 8 - - NE 1024,0 10
18.10.2018 19:00:00 13,0 10,5 16 9 29 16 NE 1023,7 10
18.10.2018 18:00:00 14,8 9,5 22 12 29 16 NE 1023,4 10
18.10.2018 17:00:00 15,8 9,7 21 11 - - NE 1023,3 10
18.10.2018 16:00:00 15,9 10,1 18 10 32 18 NNE 1023,7 10
18.10.2018 15:00:00 15,6 10,5 16 9 36 19 NNE 1024,0 10
18.10.2018 14:00:00 15,6 10,3 24 13 - - ENE 1024,0 10
18.10.2018 13:00:00 14,4 10,3 24 13 36 19 NE 1024,3 10
18.10.2018 12:00:00 13,3 10,8 22 12 29 16 NE 1024,3 10
18.10.2018 11:00:00 11,7 10,7 18 10 - - NNE 1024,3 3,2
18.10.2018 10:00:00 11,2 10,7 16 9 22 12 NE 1023,9 1,2
18.10.2018 09:00:00 11,2 10,5 13 7 25 14 NE 1023,5 3,2
18.10.2018 08:00:00 11,7 10,8 16 9 - - NNE 1023,3 3,5
18.10.2018 07:00:00 12,1 10,6 11 6 18 10 N 1023,0 10
18.10.2018 06:00:00 12,5 10,4 8 4 14 8 N 1022,8 10
18.10.2018 05:00:00 12,6 10,5 11 6 - - N 1022,7 10
18.10.2018 04:00:00 12,7 10,8 11 6 18 10 N 1022,5 10
18.10.2018 03:00:00 12,8 10,9 11 6 18 10 NNE 1022,3 10
18.10.2018 02:00:00 12,6 10,7 9 5 - - N 1022,4 10
18.10.2018 01:00:00 12,5 10,5 9 5 14 8 N 1022,3 10
18.10.2018 00:00:00 12,5 11,0 9 5 14 8 N 1022,2 10
17.10.2018 23:00:00 13,2 11,5 11 6 - - NNE 1021,8 10
17.10.2018 22:00:00 13,7 11,9 13 7 18 10 NNE 1021,3 10
17.10.2018 21:00:00 14,7 11,8 8 4 14 8 N 1020,8 10
17.10.2018 20:00:00 15,6 12,1 9 5 - - NNE 1020,2 10
17.10.2018 19:00:00 17,3 12,5 8 4 11 6 N 1019,4 10
17.10.2018 18:00:00 18,5 12,6 9 5 14 8 N 1019,1 10
17.10.2018 17:00:00 19,2 12,1 5 3 - - N 1019,0 10
17.10.2018 16:00:00 19,2 12,4 8 4 14 8 NNE 1019,0 10
17.10.2018 15:00:00 19,1 12,3 5 3 22 12 NNE 1019,1 10
17.10.2018 14:00:00 18,2 11,5 8 4 - - NNE 1019,4 10
17.10.2018 13:00:00 17,3 12,3 5 3 11 6 NNE 1019,8 10
17.10.2018 12:00:00 16,0 12,2 8 4 14 8 N 1020,1 9
17.10.2018 11:00:00 14,5 11,6 8 4 - - NW 1020,1 8
17.10.2018 10:00:00 12,5 10,2 4 2 7 4 - 1019,9 8
17.10.2018 09:00:00 11,4 9,7 4 2 11 6 S 1019,8 7
17.10.2018 08:00:00 11,1 9,3 4 2 - - SSW 1019,6 8
17.10.2018 07:00:00 11,4 9,4 5 3 11 6 SSW 1019,3 8
17.10.2018 06:00:00 11,1 9,2 4 2 7 4 S 1019,4 10
17.10.2018 05:00:00 11,7 9,2 4 2 - - SW 1019,1 10
17.10.2018 04:00:00 12,9 9,4 5 3 22 12 W 1019,2 10
17.10.2018 03:00:00 13,9 9,1 8 4 14 8 SSW 1018,8 10
17.10.2018 02:00:00 14,4 9,8 9 5 - - S 1018,9 10
17.10.2018 01:00:00 14,9 10,1 11 6 14 8 S 1018,8 10
17.10.2018 00:00:00 15,1 11,1 8 4 11 6 S 1019,2 10
16.10.2018 23:00:00 15,3 11,0 8 4 - - SSW 1019,3 10
16.10.2018 22:00:00 17,9 10,7 9 5 14 8 SE 1019,0 10
16.10.2018 21:00:00 18,4 11,2 8 4 11 6 SSE 1018,8 10
16.10.2018 20:00:00 19,4 10,7 5 3 - - SSW 1018,7 10
16.10.2018 19:00:00 20,0 11,6 8 4 14 8 WSW 1018,3 10
16.10.2018 18:00:00 21,4 11,0 11 6 22 12 W 1017,9 10
16.10.2018 17:00:00 23,6 9,2 11 6 - - SW 1017,6 10
16.10.2018 16:00:00 24,3 6,4 13 7 22 12 S 1017,6 10
16.10.2018 15:00:00 23,8 8,3 11 6 22 12 SSE 1017,7 10
16.10.2018 14:00:00 22,9 8,7 14 8 - - E 1017,9 20
16.10.2018 13:00:00 22,1 8,7 9 5 14 8 SE 1018,3 10
16.10.2018 12:00:00 19,9 9,5 4 2 14 8 - 1018,6 10
16.10.2018 11:00:00 17,4 9,6 5 3 - - SE 1018,6 10
16.10.2018 10:00:00 14,1 9,1 5 3 11 6 ESE 1018,7 10
16.10.2018 09:00:00 12,8 8,8 4 2 18 10 - 1018,5 10
16.10.2018 08:00:00 12,9 8,2 5 3 - - SSE 1018,1 10
16.10.2018 07:00:00 12,7 8,5 9 5 14 8 SSE 1017,9 10
16.10.2018 06:00:00 12,9 8,5 4 2 7 4 SSW 1017,8 10
16.10.2018 05:00:00 13,3 8,1 4 2 - - - 1017,4 10
16.10.2018 04:00:00 14,0 8,5 9 5 11 6 SSE 1017,1 10
16.10.2018 03:00:00 14,4 8,4 5 3 11 6 SSE 1017,0 10
16.10.2018 02:00:00 14,0 9,1 8 4 - - SSE 1016,6 10
16.10.2018 01:00:00 15,4 8,4 9 5 11 6 S 1016,1 10
16.10.2018 00:00:00 16,3 8,3 9 5 18 10 S 1015,8 10
15.10.2018 23:00:00 16,6 8,6 9 5 - - S 1015,7 10
15.10.2018 22:00:00 16,5 9,0 9 5 14 8 SSE 1015,2 10
15.10.2018 21:00:00 17,7 9,2 5 3 14 8 SSE 1014,9 10
15.10.2018 20:00:00 19,2 8,7 8 4 - - SSE 1014,4 10
15.10.2018 19:00:00 20,9 8,0 11 6 22 12 S 1013,9 10
15.10.2018 18:00:00 22,3 8,3 13 7 29 16 S 1013,1 10
15.10.2018 17:00:00 23,2 8,0 16 9 - - SSW 1012,6 10
15.10.2018 16:00:00 23,0 8,5 18 10 29 16 S 1012,2 10

tt = Température de l'air
td = dewpoint
ff = Vitesse du vent
fx = gusts
dd = Direction du vent
ppp = reduced air pressure
vv = visibility

stations d'obs. à proximité